sat.trackr.live / text

‹ back to catalog

STARLINK-11450 [DTC]

NORAD 62518 · 2025-004H

PAYLOAD ACTIVE UNKNOWN

§ Identity

Operator
Country
US
Launch date
2025-01-08
Launch site
AFETR
Launch vehicle
Mass (kg)
RCS (m²)

Purposes: comms

External: N2YO · Heavens-Above · Gunter

§ Orbital elements

Epoch: 2026-09-21T11:57:22.056480Z

Period
91.67 min
Inclination
43.0016°
Eccentricity
0.0001926
Mean motion
15.70856309 rev/d
Perigee alt
355.2 km
Apogee alt
357.7 km
Semi-major
6,734.6 km
B*
7.6091e-4
RAAN
330.5027°
Arg perigee
253.4375°
Mean anomaly
106.6282°
Rev number
9,800

§ Raw data

STARLINK-11450 [DTC]1 62518U 25004H   26264.49817195  .00098419  00000+0  76091-3 0  99932 62518  43.0016 330.5027 0001926 253.4375 106.6282 15.70856309 98001

JSON: /api/v1/satellites/62518 · /tle

For live sub-satellite position, see the globe view (requires WebGL).

§ Visibility from observer

Set your observer location to see the next 7 days of passes ≥ 10°. The values pass through the URL so the page stays shareable.

No JS? Fill the form by hand. The geolocation button needs JavaScript.